Location: Dehesa de la Cepeda
(40.6574°N, 4.3013°W)
Time: 03:54:47
(UTC+00:00)

Vanguard 3 - All Passes

Search period start: 06 August 2021 00:00
Search period end: 16 August 2021 00:00
Orbit: 508 x 3261 km, 33.4° (Epoch: 05 August)

Date Brightness Start Highest point End Pass type
(mag) Time Alt. Az. Time Alt. Az. Time Alt. Az.
06 Aug - 00:11:27 10° W 00:24:45 23° SW 00:36:41 10° S visible
06 Aug - 14:06:13 10° S 14:12:07 19° SE 14:20:08 10° E daylight
06 Aug - 16:13:25 10° SW 16:23:28 50° SSE 16:39:48 10° E daylight
06 Aug - 18:24:26 10° WSW 18:37:53 67° S 18:57:25 10° E daylight
06 Aug - 20:37:29 10° W 20:53:54 59° SSW 21:12:59 10° SE visible
06 Aug - 22:53:03 10° W 23:09:05 35° SW 23:24:26 10° SSE visible
07 Aug - 15:00:48 10° SSW 15:08:50 35° SE 15:21:35 10° E daylight
07 Aug - 17:10:24 10° WSW 17:21:40 62° SSE 17:39:48 10° E daylight
07 Aug - 19:22:24 10° W 19:37:01 65° S 19:56:41 10° ESE visible
07 Aug - 21:36:21 10° W 21:52:48 46° SSW 22:10:28 10° SE visible
07 Aug - 23:54:45 10° W 00:06:53 20° SW 00:18:20 10° S visible
08 Aug - 13:49:26 10° S 13:55:01 20° SE 14:02:46 10° E daylight
08 Aug - 15:57:01 10° SW 16:06:17 51° SSE 16:21:52 10° E daylight
08 Aug - 18:07:56 10° WSW 18:20:26 66° S 18:39:32 10° ESE daylight
08 Aug - 20:20:42 10° W 20:36:08 55° SSW 20:55:11 10° SE visible
08 Aug - 22:36:08 10° W 22:51:11 31° SW 23:06:26 10° SSE visible
09 Aug - 14:44:21 10° SSW 14:51:46 36° SE 15:03:49 10° E daylight
09 Aug - 16:54:02 10° WSW 17:04:27 62° S 17:21:50 10° E daylight
09 Aug - 19:05:49 10° W 19:19:27 62° S 19:38:47 10° ESE daylight
09 Aug - 21:19:31 10° W 21:34:57 42° SSW 21:52:31 10° SSE visible
09 Aug - 23:38:29 10° W 23:49:03 17° SW 23:59:28 10° SSW visible
10 Aug - 13:32:49 10° S 13:38:01 20° SE 13:45:25 10° E daylight
10 Aug - 15:40:43 10° SW 15:49:14 52° SSE 16:03:57 10° E daylight
10 Aug - 17:51:32 10° W 18:03:07 65° S 18:21:34 10° ESE daylight
10 Aug - 20:04:02 10° W 20:18:26 52° SSW 20:37:12 10° SE visible
10 Aug - 22:19:28 10° W 22:33:20 28° SW 22:48:05 10° S visible
11 Aug - 14:28:01 10° SSW 14:34:49 37° SSE 14:46:06 10° E daylight
11 Aug - 16:37:46 10° WSW 16:47:21 62° S 17:03:51 10° E daylight
11 Aug - 18:49:20 10° W 19:01:59 59° SSW 19:20:46 10° ESE daylight
11 Aug - 21:02:51 10° W 21:17:11 38° SSW 21:34:18 10° SSE visible
11 Aug - 23:22:53 10° WSW 23:31:18 14° SW 23:39:51 10° SSW visible
12 Aug - 13:16:19 10° S 13:21:09 21° SE 13:28:07 10° E daylight
12 Aug - 15:24:30 10° SW 15:32:19 53° SSE 15:46:04 10° E daylight
12 Aug - 17:35:13 10° W 17:45:54 63° S 18:03:32 10° ESE daylight
12 Aug - 19:47:30 10° W 20:00:50 47° SSW 20:19:02 10° SE visible
12 Aug - 22:03:05 10° W 22:15:34 24° SW 22:29:23 10° S visible
13 Aug - 14:11:47 10° SW 14:18:01 38° SSE 14:28:26 10° E daylight
13 Aug - 16:21:34 10° WSW 16:30:23 61° S 16:45:52 10° E daylight
13 Aug - 18:32:57 10° W 18:44:38 55° SSW 19:02:38 10° SE daylight
13 Aug - 20:46:24 10° W 20:59:31 34° SSW 21:15:51 10° SSE visible
13 Aug - 23:08:46 10° WSW 23:13:39 11° SW 23:18:40 10° SSW visible
14 Aug - 12:59:54 10° S 13:04:24 22° SE 13:10:53 10° E daylight
14 Aug - 15:08:21 10° WSW 15:15:31 53° SSE 15:28:14 10° E daylight
14 Aug - 17:18:59 10° W 17:28:48 59° S 17:45:26 10° ESE daylight
14 Aug - 19:31:07 10° W 19:43:21 43° SSW 20:00:40 10° SE visible
14 Aug - 21:47:05 10° W 21:57:55 20° SW 22:10:13 10° S visible
15 Aug - 13:55:37 10° SW 14:01:19 38° SSE 14:10:53 10° E daylight
15 Aug - 16:05:26 10° WSW 16:13:31 59° S 16:27:55 10° ESE daylight
15 Aug - 18:16:42 10° W 18:27:23 50° SSW 18:44:22 10° SE daylight
15 Aug - 20:30:09 10° W 20:41:59 29° SSW 20:57:06 10° SSE visible
